Regional Weather Roundup
Issued by NWS

Home | Current Version | Previous Version | Text Only | Print | Product List | Glossary On
Versions: 1 2 3 4 5 6 7 8 9 10 11 12 13 14 15 16 17 18 19 20 21 22 23 24 25 26 27 28 29 30 31 32 33 34 35 36 37 38 39 40 41 42 43 44 45 46 47 48 49 50
000
ASCA44 KEWX 311920
RWRMX

LATIN AMERICA AND CARIBBEAN REGIONAL WEATHER ROUNDUP
NATIONAL WEATHER SERVICE AUSTIN/SAN ANTONIO TX
200 PM CDT THU JUL 31 2014

NOTE: "FAIR" INDICATED FEW OR NO CLOUDS BELOW 12,000 FEET WITH NO
SIGNIFICANT WEATHER AND/OR OBSTRUCTIONS TO VISIBILITY.

BAJA CALIFORNIA

CITY           SKY/WX    TMP DP  RH WIND       PRES   REMARKS
LORETO         MOSUNNY   93  72  49 E9        29.85F HX 100
LA PAZ         MOSUNNY   88  72  58 NW14      29.90  HX  94
MEXICALI       CLOUDY   102  68  32 SE8       29.82  HX 108
S.J. DEL CABO  MOSUNNY   91  73  55 SE17      29.92  HX 100
TIJUANA        MOSUNNY   81  61  50 W9        29.94

NORTHWESTERN MEXICO

CITY           SKY/WX    TMP DP  RH WIND       PRES   REMARKS
CULIACAN       CLOUDY    91  75  59 CALM      29.94  HX 102
DURANGO        PTSUNNY   82  45  26 E5        30.27
GUAYMAS        MOSUNNY   93  75  55 S6        29.85  HX 104
HERMOSILLO     MOSUNNY   99  64  32 CALM      29.95  HX 101
CD. JUAREZ     PTSUNNY   84  57  39 N7        30.12
LOS MOCHIS     PTSUNNY   90  72  55 S9        29.90F HX  96
OBREGON        MOSUNNY   93  64  38 N8        29.88  HX  95

NORTHEASTERN MEXICO

CITY           SKY/WX    TMP DP  RH WIND       PRES   REMARKS
CHIHUAHUA      MOSUNNY   84  54  34 NW12      30.20
MATAMOROS      MOSUNNY   95  75  52 SE23      29.94  HX 107
MONTERREY      SUNNY     95  61  31 E9        29.92F HX  95
NUEVO LAREDO   SUNNY    100  72  39 CALM      29.92  HX 109
PIEDRAS NEGRAS PTSUNNY   91  75  59 N7        30.00S HX 102
REYNOSA        SUNNY     99  57  25 SE14G25   29.89  HX  97
SALTILLO       MOSUNNY   91  57  31 N8        30.18F HX  90
TORREON        PTSUNNY   93  50  22 CALM      30.09  HX  90
CD. VICTORIA   SUNNY     95  64  36 S12G24    29.91  HX  97

WESTERN MEXICO

CITY           SKY/WX    TMP DP  RH WIND       PRES   REMARKS
AGUASCALIENTES PTSUNNY   77  55  47 E6        30.30
COLIMA         MOSUNNY   82  72  69 CALM      30.05F
DEL BAJIO        N/A    N/A N/A N/A MISG        N/A
GUADALAJARA    PTSUNNY   70  59  68 E5        30.24
MANZANILLO     PTSUNNY   90  77  66 CALM      29.87  HX 102
MAZATLAN       CLOUDY    82  72  69 SE6       29.91F
P. VALLARTA    CLOUDY    90  77  66 SW6       29.93F HX 102
URUAPAN        PTSUNNY   75  61  60 S9        30.23F
ZACATECAS      PTSUNNY   82  36  18 NE12      30.33

CENTRAL MEXICO

CITY           SKY/WX    TMP DP  RH WIND       PRES   REMARKS
CUERNAVACA     MOSUNNY   82  52  34 SE7       30.17F
MEXICO CITY    MOSUNNY   75  45  33 NE7       30.34F
MORELIA        PTSUNNY   77  57  50 CALM      30.28
POZA RICA      PTSUNNY   91  77  62 E7        29.97S HX 105
PUEBLA         MOSUNNY   75  37  25 W3        30.38F
QUERETARO      MOSUNNY   81  57  44 N7        30.33F
S. LUIS POTOSI MOSUNNY   81  45  28 CALM      30.27
TAMPICO        MOSUNNY   90  72  55 SE12      29.95F HX  96
TOLUCA         PTSUNNY   72  39  30 SE3       30.44

SOUTHERN MEXICO

CITY           SKY/WX    TMP DP  RH WIND       PRES   REMARKS
ACAPULCO       SUNNY     90  77  66 W8        29.88F HX 102
B. DE HUATULCO MOSUNNY   93  75  55 SW12      29.90  HX 104
OAXACA         MOSUNNY   79  48  34 E3        30.23F
P. ESCONDIDO   SUNNY     90  73  58 SW9       30.02F HX  98
VERACRUZ       MOSUNNY   90  77  66 NE12      29.94F HX 102
ZIHUATANEJO    MOSUNNY   91  77  62 S5        29.91F HX 105

YUCATAN PENINSULA

CITY           SKY/WX    TMP DP  RH WIND       PRES   REMARKS
CAMPECHE       MOSUNNY   93  72  49 E7        29.93F HX 100
CANCUN         MOSUNNY   90  73  58 SE12      29.99F HX  98
CHETUMAL       MOSUNNY   91  82  75 E9        29.95F HX 114
CD. DEL CARMEN SUNNY     91  70  49 E10       29.94  HX  97
COZUMEL        PTSUNNY   86  77  74 S6        30.00S HX  97
MERIDA         PTSUNNY   93  70  46 E6        29.96F HX  99
MINATITLAN     SUNNY     88  68  51 N7        29.92  HX  91
TAPACHULA      SUNNY     90  81  74 W12       29.86F HX 108
TUX. GUTIERREZ MOSUNNY   90  63  40 SE5       29.96F HX  90
VILLAHERMOSA   MOSUNNY   93  66  40 E13       29.93F HX  96

CENTRAL AMERICA

CITY           SKY/WX    TMP DP  RH WIND       PRES   REMARKS
BELIZE CITY    MOSUNNY   90  77  66 E8        29.95F HX 102
MANAGUA        PTCLDY    93  70  46 E18       29.83S HX  99

CARIBBEAN

CITY           SKY/WX    TMP DP  RH WIND       PRES   REMARKS
ARUBA          MOSUNNY   90  79  70 E23       29.83S HX 105
CURACAO        MOSUNNY   88  75  66 E16       29.89S HX  97
KINGSTON       MOSUNNY   86  77  74 S22       29.92S HX  97
SAN JUAN       MOSUNNY   86  75  70 E15       29.95F HX  95
SANTO DOMINGO  MOSUNNY   90  77  66 S9        29.92F HX 102
ST. CROIX      MOSUNNY   88  73  62 SE12      29.98F HX  96
ST. KITTS      MOSUNNY   88  75  66 E12       29.97S HX  97
ST. MAARTEN    MOSUNNY   86  73  66 SE13      29.97S HX  93
ST. THOMAS     SUNNY     88  75  66 SE10      29.97  HX  97

$$




USA.gov is the U.S. government's official web portal to all federal, state and local government web resources and services.